Hourly Data Report for October 07, 2014

All times are specified in Local Standard Time (LST). Add 1 hour to adjust for Daylight Saving Time where and when it is observed.

KITCHENER/WATERLOO
ONTARIO

43°27'39.000" N
80°22'43.000" W
321.60 m
6144239
71368
YKF

Download Data

Hourly Data (October 2014)
Hourly Data Report for October 7, 2014
Temp Definition
°C
Dew Point Temp Definition
°C
Rel Hum Definition
%
Wind Dir Definition
10's deg

Wind Spd Definition
km/h
Visibility Definition
km
Stn Press Definition
kPa
Hmdx Definition


Wind Chill Definition


Weather Definition


TIME
00:00 Legend Double Dagger 10.6 9.7 94 21 15 16.1 96.82     LegendNANA
01:00 Legend Double Dagger 10.3 9.5 95 21 13 8.1 96.82     Fog
02:00 Legend Double Dagger 10.0 9.1 94 20 11 12.9 96.83     LegendNANA
03:00 Legend Double Dagger 9.7 8.8 94 20 13 16.1 96.87     LegendNANA
04:00 Legend Double Dagger 9.0 8.3 95 19 13 16.1 96.84     LegendNANA
05:00 Legend Double Dagger 7.9 7.1 95 18 8 16.1 96.90     LegendNANA
06:00 Legend Double Dagger 7.3 6.6 95 21 5 16.1 96.95     LegendNANA
07:00 Legend Double Dagger 8.3 7.6 95 20 13 9.7 97.01     Fog
08:00 Legend Double Dagger 10.2 8.8 91 22 11 9.7 97.03     Fog
09:00 Legend Double Dagger 12.5 9.8 83 23 21 16.1 97.08     LegendNANA
10:00 Legend Double Dagger 13.3 8.7 73 22 30 16.1 97.10     LegendNANA
11:00 Legend Double Dagger 14.8 6.5 57 21 32 16.1 97.07     LegendNANA
12:00 Legend Double Dagger 16.0 6.3 52 22 24 16.1 97.05     LegendNANA
13:00 Legend Double Dagger 15.0 7.9 62 19 34 16.1 97.00     LegendNANA
14:00 Legend Double Dagger 14.3 6.9 61 20 26 16.1 97.00     LegendNANA
15:00 Legend Double Dagger 13.2 9.0 76 17 11 16.1 96.94     Rain
16:00 Legend Double Dagger 11.6 9.2 85 19 13 16.1 96.94     Rain
17:00 Legend Double Dagger 11.3 9.6 89 14 8 16.1 96.87     LegendNANA
18:00 Legend Double Dagger 10.9 9.7 92 11 9 16.1 96.81     LegendNANA
19:00 Legend Double Dagger 11.0 10.1 94 11 9 16.1 96.79     LegendNANA
20:00 Legend Double Dagger 11.0 10.2 95 11 8 9.7 96.79     Fog
21:00 Legend Double Dagger 11.2 10.4 95 13 5 4.8 96.77     Fog
22:00 Legend Double Dagger 11.3 10.5 95 18 9 4.8 96.74     Fog
23:00 Legend Double Dagger 10.7 10.1 96 21 5 4.8 96.72     Fog

Notes on Data Quality.

Legend

  • E = Estimated
  • M = Missing
  • NA = Not Available
  • ‡ = Partner data that is not subject to review by the National Climate Archives
Date modified: